Wind_Speed
51 53 53 52 50 51 53 54 55 55 55 55 56 58 61 61 54 42 31 23 19 17 14 14 15 16 18 19 21 22 24 25 29 38 47 53 58 62 65 66 68 70 71 71 70 67 66 66 66 66 65 65 64 63 62 62 61 61 62 63 61 60 59 57 57 55 52 54 56 54 52 52 52 53 51 49 47 46 44 39 35 33 30 28 26 20 15
53 54 55 54 53 53 55 55 54 56 56 55 55 56 58 56 49 39 30 23 19 16 14 14 15 17 19 20 20 20 21 21 25 33 41 46 49 54 60 64 67 70 72 72 71 69 68 68 68 68 67 66 66 65 64 64 64 63 64 64 61 60 60 58 59 59 57 58 58 55 55 56 56 55 53 52 51 50 48 43 40 39 36 33 29 24 22
54 56 56 55 53 53 54 53 53 56 56 55 55 55 55 53 45 38 31 24 20 17 16 16 17 18 19 19 19 19 19 20 22 27 35 41 44 45 50 57 63 67 70 71 71 70 70 71 71 70 69 68 68 67 67 66 66 65 64 63 61 61 62 61 62 62 60 59 60 58 58 58 57 56 55 54 54 52 50 46 45 43 38 34 31 28 28
55 57 57 55 52 51 52 52 53 55 55 54 54 53 53 50 43 37 31 26 21 19 18 18 19 19 19 18 17 17 17 18 19 22 28 37 42 41 40 44 53 61 67 68 69 70 71 72 74 72 71 71 70 70 69 68 68 67 65 64 64 64 64 63 63 63 62 61 62 60 58 59 58 57 55 55 55 54 51 48 47 44 38 35 33 30 28
56 56 55 52 50 49 50 51 52 54 54 53 53 52 50 47 42 37 32 27 23 21 21 21 21 21 19 17 16 16 15 15 16 18 22 30 37 38 36 37 43 51 59 64 66 70 72 74 75 74 74 73 72 71 71 70 69 69 68 67 66 65 66 63 62 63 63 63 63 61 60 60 59 57 56 55 54 52 50 50 49 44 40 38 35 31 29
55 54 52 50 49 48 48 50 51 53 53 52 51 50 47 44 40 37 34 30 26 23 22 22 22 20 18 17 16 16 15 14 14 14 17 24 33 34 32 34 39 42 47 55 62 67 72 74 76 76 75 75 74 74 73 72 71 71 70 69 67 66 68 66 64 65 64 64 63 62 62 61 60 59 57 55 53 50 49 50 49 44 43 41 35 31 31
53 51 50 49 48 47 47 48 49 51 52 50 50 49 46 42 38 35 34 32 28 25 23 22 21 19 17 18 17 16 16 14 12 11 12 19 28 30 27 30 36 39 40 45 54 64 70 74 77 78 77 76 76 76 75 74 74 72 72 71 69 68 69 68 67 66 66 66 65 64 63 62 61 60 58 56 54 51 50 51 48 45 45 41 35 33 33
53 50 49 49 47 46 47 48 48 50 51 50 48 49 46 41 36 33 32 32 29 25 23 21 20 20 19 18 18 16 15 14 12 9 9 17 24 28 27 26 31 38 39 41 49 60 69 75 79 79 78 78 78 79 78 77 75 74 73 73 71 70 70 68 67 67 67 67 66 65 64 63 62 62 60 58 56 54 53 52 48 46 46 40 35 36 35
53 51 50 49 47 47 47 48 48 48 49 48 47 48 47 42 36 33 31 31 29 24 22 21 20 20 19 18 18 16 14 13 11 7 6 15 21 26 29 27 26 31 37 41 47 55 65 74 79 79 78 79 79 79 79 78 76 75 75 74 73 73 71 69 68 68 69 69 67 67 66 65 64 64 62 60 58 56 55 53 50 48 47 41 37 38 36
54 53 51 50 49 48 47 48 48 47 48 48 46 46 47 43 37 33 31 29 27 24 22 21 20 20 19 18 18 17 14 13 11 8 7 13 18 20 25 28 28 27 31 36 42 50 60 69 76 79 79 80 80 79 79 79 78 77 76 75 75 75 73 71 69 70 71 71 69 68 67 66 65 65 63 60 59 57 56 55 52 50 49 44 40 40 38
55 54 53 52 51 50 48 48 48 47 47 47 45 44 46 44 38 33 30 28 26 23 22 21 20 20 20 19 18 18 15 13 11 10 9 12 17 18 21 26 28 27 30 33 35 42 53 63 71 77 79 79 80 80 79 79 79 78 77 76 75 75 75 74 72 71 72 73 71 68 68 68 67 67 65 62 60 58 57 56 54 52 51 46 43 43 40
54 54 53 53 52 52 50 49 48 47 46 45 45 43 43 44 40 35 31 28 25 21 20 21 20 19 19 18 18 18 16 13 11 10 9 10 14 20 23 24 25 26 29 32 32 34 43 54 64 72 76 79 80 80 80 80 80 79 78 77 77 76 76 76 74 73 73 73 72 69 69 69 70 70 67 64 61 59 59 58 55 53 52 49 46 45 41
54 53 51 51 52 52 51 50 49 48 46 45 44 43 42 42 42 37 31 28 26 21 18 20 21 19 17 16 17 17 15 13 12 10 9 8 9 16 22 25 26 26 27 30 32 32 36 45 55 63 71 77 79 80 81 80 79 79 79 78 78 77 77 77 76 75 75 74 73 71 71 72 72 71 68 65 63 61 60 58 56 55 55 52 49 46 41
53 52 49 49 50 50 49 50 50 48 47 45 44 42 41 41 42 39 33 29 26 22 18 19 21 20 18 15 15 16 15 13 12 11 9 8 7 9 14 21 26 27 26 27 30 31 33 37 43 51 62 71 76 79 80 80 79 80 80 79 79 78 78 78 78 77 76 76 74 73 73 73 72 71 69 67 65 63 61 60 59 59 58 54 50 47 43
51 51 49 49 49 48 46 48 49 49 47 46 44 43 41 40 41 41 36 30 26 22 18 18 20 20 19 16 14 15 15 14 13 11 10 9 8 7 9 13 18 22 24 25 27 28 29 30 33 38 48 60 69 74 77 80 80 80 80 79 79 79 78 78 79 78 78 77 76 75 74 73 73 73 71 69 67 65 62 60 61 61 58 55 52 49 45
50 49 49 49 48 46 44 45 47 47 47 45 44 43 42 40 40 42 39 31 26 22 18 17 19 19 18 17 15 13 14 15 14 13 11 9 7 6 7 9 10 14 19 22 24 26 27 27 28 30 36 48 60 67 72 77 80 80 80 80 79 79 79 79 79 79 79 78 77 76 75 74 74 75 73 70 68 66 64 61 62 62 58 56 54 51 47
50 48 48 48 47 44 43 43 44 45 45 44 43 43 43 42 40 41 40 34 28 23 18 16 18 18 17 17 15 14 14 14 14 14 12 10 7 5 8 9 7 8 12 17 22 26 26 25 26 27 30 37 46 56 64 71 75 78 80 80 79 78 79 81 80 79 79 79 78 77 76 76 77 77 75 72 69 67 65 63 63 62 59 57 55 51 48
50 48 48 48 46 43 42 42 43 43 43 43 42 41 42 43 40 39 39 36 31 25 19 16 16 16 16 16 14 13 13 13 12 12 11 9 6 5 5 4 4 7 12 14 19 24 26 24 24 26 28 30 35 43 53 62 69 74 76 79 80 80 79 80 81 80 80 79 79 78 78 78 78 78 76 74 71 69 67 65 65 63 60 59 56 53 50
49 48 47 46 45 43 41 41 41 42 42 41 39 39 40 42 41 38 36 36 34 28 21 17 15 14 14 15 14 12 11 10 10 10 9 6 3 3 4 1 2 6 9 11 13 17 20 20 21 23 25 28 31 34 41 50 58 64 68 73 78 81 81 81 81 81 81 81 80 79 79 79 80 79 77 74 72 70 68 67 66 65 62 60 58 54 51
48 48 46 45 45 43 41 39 39 39 40 39 37 37 39 40 40 38 35 34 34 31 24 18 16 13 11 13 14 12 11 9 9 9 7 4 1 3 5 3 1 3 6 8 10 13 16 16 15 17 20 24 26 28 34 42 49 55 62 70 77 81 82 82 83 82 81 82 81 80 80 81 81 79 77 74 72 72 71 68 66 65 63 62 60 57 53
47 46 45 44 45 44 41 39 38 38 39 38 36 37 39 38 36 36 34 32 32 32 27 20 17 15 13 12 12 12 10 9 9 9 8 5 1 2 3 4 3 2 4 5 7 12 16 15 13 14 16 18 21 24 28 34 42 50 60 68 75 77 78 80 84 85 84 83 83 82 82 82 81 79 77 75 73 72 72 70 68 67 64 62 61 59 56
46 45 44 43 44 44 41 39 38 37 37 37 36 37 39 37 34 33 32 30 29 30 28 23 18 16 15 14 12 10 10 9 9 10 9 6 3 2 2 3 3 3 5 5 6 12 17 16 14 14 14 14 17 21 24 26 31 42 52 61 67 71 75 79 83 86 87 86 85 84 83 81 81 80 78 76 74 72 72 71 69 68 66 63 61 60 57
46 45 43 42 42 43 41 39 38 37 36 36 36 37 38 36 32 30 30 28 26 27 27 24 19 17 17 15 12 11 9 8 8 8 8 7 5 3 3 4 4 5 6 6 5 10 17 18 14 12 13 13 14 17 20 22 25 31 40 51 58 65 73 78 81 85 89 88 86 85 83 81 82 81 79 76 74 73 73 72 70 69 67 64 62 61 58
45 44 42 41 41 41 40 38 38 38 37 36 36 36 36 34 30 28 29 28 24 23 25 23 19 17 18 15 12 10 9 7 6 6 7 7 6 4 3 2 4 4 5 7 6 9 16 17 11 8 10 13 13 14 17 19 21 25 32 41 49 58 67 74 79 84 88 89 87 86 84 83 83 81 79 77 75 74 73 72 71 69 67 65 63 61 59
43 42 41 40 41 40 39 37 38 39 38 38 36 35 34 32 29 28 29 28 24 21 22 22 19 17 17 15 12 10 9 7 6 6 6 7 7 5 2 1 3 4 5 7 7 9 15 15 8 6 8 11 12 14 16 18 20 23 28 34 41 50 60 67 74 81 86 89 89 87 86 85 83 82 80 79 77 75 74 73 72 70 68 65 64 62 60
42 40 39 39 39 38 37 36 37 37 38 38 37 35 34 32 28 28 31 29 24 21 20 20 18 15 14 13 12 10 9 9 7 7 7 8 7 5 2 1 2 3 2 3 4 8 14 14 8 4 6 8 10 13 15 17 18 20 24 29 34 42 52 59 67 75 81 85 86 85 85 85 83 83 83 81 79 77 75 74 73 71 69 67 65 63 61
40 39 39 38 37 35 34 34 34 34 34 35 35 35 36 34 29 29 32 29 24 23 22 20 18 15 13 13 12 11 10 10 10 9 9 9 7 5 4 3 4 4 3 3 4 7 13 13 8 4 5 6 9 11 13 15 16 16 20 25 29 35 43 50 58 66 72 76 79 81 84 84 83 84 84 83 81 79 77 75 74 72 70 68 65 63 63
39 39 38 37 35 32 31 32 33 33 33 34 34 34 34 32 29 30 33 31 28 26 24 23 21 19 17 17 17 16 14 14 13 12 11 10 8 7 6 6 6 6 6 7 8 9 10 9 5 4 5 6 8 9 9 10 11 12 15 20 24 29 34 40 47 54 59 64 69 75 80 82 81 83 84 83 82 80 79 77 75 73 71 68 62 61 62
38 38 37 35 32 30 30 31 31 32 33 34 34 32 31 29 28 30 33 34 34 32 30 29 27 24 22 21 20 20 18 17 16 14 12 11 10 9 8 8 8 8 8 8 8 8 7 6 5 5 4 4 5 6 7 8 8 8 10 12 15 20 25 31 38 44 48 54 61 68 75 76 76 78 81 82 82 81 79 78 76 73 72 70 66 62 61
37 37 35 32 30 30 30 31 31 32 33 33 33 32 30 28 29 30 32 33 33 34 34 33 31 29 26 24 22 21 20 19 17 16 14 13 13 12 12 11 11 10 9 8 7 5 4 3 3 2 1 0 2 4 6 8 9 9 10 9 9 13 18 24 31 37 42 49 56 64 70 71 71 75 79 80 79 79 78 78 77 74 72 72 69 62 57
35 34 31 29 29 30 31 31 31 31 32 32 32 31 29 28 29 30 31 30 29 29 30 30 29 28 27 25 23 22 21 20 19 19 18 17 16 16 15 14 13 11 10 9 9 8 8 7 6 5 4 3 3 5 6 7 9 11 11 9 8 9 11 16 22 29 36 43 49 57 62 63 64 69 74 74 74 76 76 75 75 74 73 72 70 64 57
33 32 29 28 29 30 31 30 30 30 31 31 31 31 28 25 26 28 29 29 27 25 25 26 26 26 25 24 23 22 21 21 20 20 20 19 18 17 17 16 16 15 14 14 14 13 12 12 10 8 6 3 3 5 6 6 8 9 8 6 6 6 6 6 12 20 29 37 43 48 52 53 56 60 63 64 66 69 70 70 70 70 70 70 69 67 64
32 30 29 30 31 31 30 29 29 29 29 29 30 30 26 23 24 26 27 28 26 24 23 23 24 24 24 23 23 22 21 21 21 20 21 21 20 19 19 19 20 20 20 19 18 18 17 16 15 13 11 7 3 3 5 4 5 7 7 5 6 6 3 3 5 10 19 28 37 42 44 46 49 52 54 57 61 63 64 63 62 63 64 65 65 63 61
31 29 30 33 34 31 28 27 27 28 28 28 28 28 25 22 22 23 25 26 25 24 23 22 22 22 22 22 22 22 21 22 22 22 22 22 21 20 20 21 21 21 21 20 20 20 20 20 19 18 16 13 10 7 6 5 4 6 8 9 8 7 7 9 8 8 11 18 28 36 42 45 47 49 51 53 55 58 58 57 56 56 57 57 57 55 52
29 30 32 35 34 30 27 26 26 26 26 26 26 26 25 23 22 22 23 23 24 24 24 22 22 21 21 21 22 22 21 22 23 23 22 22 22 21 21 21 21 22 21 21 20 20 20 20 19 17 16 15 14 12 10 9 6 2 5 7 7 6 8 11 11 9 9 11 17 28 39 46 47 48 48 49 49 50 51 52 53 52 51 50 49 49 47
29 32 34 35 33 29 25 24 25 26 25 24 24 24 24 24 23 23 22 22 23 24 24 23 23 22 21 21 21 21 20 21 22 21 21 21 20 20 20 20 20 20 20 20 19 19 20 19 17 16 16 16 15 13 10 6 3 5 6 4 1 3 6 10 10 8 8 8 10 18 32 42 47 47 47 47 46 45 45 46 47 46 46 46 46 45 45
29 32 35 36 33 28 23 22 24 26 26 25 22 22 23 25 26 25 24 23 23 23 23 23 23 23 22 22 21 21 21 21 22 22 21 21 21 21 21 21 21 20 20 22 22 22 21 19 16 15 15 14 12 10 6 1 4 4 2 1 3 5 6 8 9 8 8 9 8 12 20 32 43 46 44 43 42 42 41 41 41 41 43 43 42 41 40
29 33 36 36 32 25 20 21 24 26 26 25 23 21 23 25 27 27 27 27 27 27 27 27 27 27 27 27 26 25 24 24 25 26 27 28 29 29 30 30 29 29 30 30 28 25 22 20 17 16 14 10 8 7 4 1 2 3 5 4 4 4 5 6 7 7 5 5 6 12 17 25 35 40 39 37 36 36 35 36 38 41 43 42 41 41 41
30 33 36 35 31 25 22 22 24 25 25 25 25 25 26 28 29 31 30 30 30 31 32 32 32 32 31 30 30 30 29 29 30 32 33 34 35 36 36 36 36 36 36 35 32 29 26 23 21 20 17 11 7 7 5 3 3 4 4 3 3 4 5 6 4 5 5 2 6 16 23 27 31 34 35 35 35 32 31 33 37 41 43 42 42 44 45
30 33 34 33 30 26 25 24 22 22 23 25 26 28 29 30 31 33 33 33 33 34 33 33 33 33 33 32 33 33 33 33 33 34 35 35 35 37 39 40 39 39 39 37 35 33 33 31 27 25 23 19 14 10 7 5 5 5 5 4 5 6 7 6 2 4 6 6 12 20 26 29 31 33 34 32 29 30 32 33 36 40 43 43 42 45 47
30 33 33 32 29 27 27 26 22 20 21 24 26 28 29 30 31 32 33 34 34 34 32 31 31 31 31 32 33 34 35 36 36 37 38 39 40 41 42 42 41 41 41 39 37 36 36 35 33 32 32 32 27 18 11 6 3 1 2 4 5 6 7 4 2 5 7 11 15 19 23 25 27 30 30 21 16 21 29 33 33 36 40 43 44 46 46
31 34 33 32 30 28 26 25 23 20 20 22 24 26 27 28 28 28 29 31 31 31 30 29 30 30 30 31 32 34 35 35 36 37 37 37 38 40 41 41 41 41 41 40 39 39 38 37 36 36 37 39 35 26 18 12 6 2 2 4 4 4 6 6 9 9 9 12 14 16 21 25 27 29 24 13 7 14 23 28 30 33 37 42 46 46 44
31 33 31 29 28 26 23 21 21 21 22 23 24 25 27 27 26 27 28 28 28 28 27 27 28 29 28 28 29 30 30 32 33 33 33 33 33 34 35 37 37 38 38 38 39 40 39 39 38 37 37 39 39 34 26 19 13 8 6 6 7 8 7 9 12 12 12 13 13 14 20 25 28 29 23 10 6 13 20 24 30 34 37 43 47 43 39
30 30 27 24 22 21 19 18 20 22 23 23 23 25 27 27 27 27 27 27 26 25 25 24 24 24 24 24 24 24 25 27 28 28 29 30 30 29 31 33 33 32 34 36 37 38 38 38 37 36 34 35 36 37 34 27 19 14 11 10 9 9 10 12 15 15 16 17 16 15 19 24 26 26 20 10 7 12 17 22 29 35 39 44 48 44 38
30 27 23 20 17 16 17 18 20 23 25 24 23 22 24 25 25 25 24 24 22 22 22 21 21 21 21 20 20 20 21 22 23 24 24 24 26 27 29 29 29 29 31 33 34 35 35 34 32 34 35 35 33 34 35 35 30 22 15 10 10 11 12 13 15 16 18 20 21 21 22 23 22 20 17 12 10 13 16 18 25 34 40 45 50 49 42
27 24 20 17 16 16 18 20 22 24 25 25 22 20 20 20 21 22 22 22 21 21 20 19 19 20 20 19 18 18 18 18 19 21 21 20 22 25 25 24 24 26 29 31 31 31 31 29 28 30 34 34 32 30 30 32 34 32 25 17 14 14 13 13 16 19 19 19 20 21 22 23 21 19 18 16 14 15 17 19 23 31 38 43 49 50 44
24 22 20 17 16 17 20 23 25 26 25 24 22 20 18 17 16 17 18 19 19 19 20 20 21 21 21 19 18 18 18 18 18 19 18 18 20 21 20 19 22 25 26 27 27 26 25 24 25 27 29 30 30 29 27 26 29 32 32 28 23 20 15 12 15 18 19 19 20 21 23 24 23 20 19 19 19 19 20 21 24 30 36 41 47 50 47
21 21 20 19 18 19 21 23 25 25 24 24 23 22 20 17 15 13 12 12 12 14 16 18 19 21 21 20 18 17 17 18 19 19 19 20 20 19 19 21 23 25 25 24 24 22 22 22 23 25 26 26 27 27 26 24 24 24 26 27 28 26 21 16 15 18 19 19 20 20 20 21 21 22 23 23 23 25 26 26 26 29 33 38 42 45 46
22 22 21 20 20 20 20 21 22 23 23 23 22 20 18 17 16 15 14 12 11 10 10 12 14 14 15 17 18 18 17 17 18 19 20 21 21 21 21 22 23 22 23 22 21 20 21 22 22 23 24 24 24 24 24 23 22 21 20 20 21 23 23 21 21 22 22 22 23 23 20 16 15 19 20 18 18 22 26 27 25 26 28 33 38 40 42
22 21 21 21 21 21 20 19 20 20 20 20 18 16 15 14 14 14 14 13 12 11 10 9 9 10 11 14 16 17 16 17 18 20 21 21 22 21 22 22 21 21 21 21 20 19 20 20 20 21 22 22 22 21 21 21 20 20 20 18 17 17 17 16 15 15 16 17 19 21 20 17 16 19 19 17 16 20 24 25 25 25 28 32 34 33 33
19 19 18 19 19 19 18 18 18 19 19 18 17 16 15 14 14 14 15 15 15 15 14 12 11 11 12 13 13 13 13 15 18 20 20 21 22 22 22 22 22 21 21 20 20 20 19 18 18 18 18 19 19 18 17 17 18 18 18 18 17 16 15 14 11 9 9 10 11 12 14 16 19 22 24 23 23 25 26 25 25 25 27 30 31 30 30
19 19 19 20 20 19 19 19 20 20 20 20 19 18 17 17 16 17 18 18 17 16 14 13 12 12 12 11 11 12 14 16 18 19 19 20 20 21 22 22 22 22 22 21 21 20 19 18 18 17 16 17 17 16 15 15 15 14 14 14 14 14 14 13 11 10 9 9 9 7 7 8 11 14 17 19 20 21 22 22 22 23 23 25 27 29 29
Wind_Direction
339 339 338 336 333 330 331 334 336 337 339 340 340 340 341 343 344 343 342 339 334 326 314 302 296 292 286 283 283 280 272 261 247 236 231 228 225 221 218 217 216 215 214 215 214 213 212 214 215 216 217 217 217 216 215 216 215 212 213 216 216 217 215 213 218 219 216 219 223 223 223 225 225 225 224 222 221 221 224 223 221 222 221 221 222 217 203
338 338 337 335 332 331 332 335 338 338 340 342 344 343 345 348 348 348 348 347 342 336 329 321 312 306 302 298 293 286 276 266 252 240 232 229 227 224 220 218 217 215 213 212 211 210 210 211 213 215 216 216 216 216 214 214 215 213 213 214 213 216 216 212 215 218 216 217 221 221 222 224 224 224 224 223 222 221 221 219 218 219 218 216 215 214 204
338 338 337 335 334 333 335 337 338 339 341 345 347 346 347 351 352 352 352 351 348 342 337 331 323 318 314 307 300 293 282 271 258 243 233 227 225 225 221 219 218 216 214 211 209 208 208 209 211 212 214 215 215 215 214 213 214 214 214 214 212 214 216 213 213 217 217 218 221 220 221 224 224 224 223 223 223 222 222 220 220 220 218 214 211 211 205
338 338 337 337 335 334 337 338 339 340 343 347 350 348 348 353 356 355 353 352 349 344 339 335 330 325 320 313 308 304 294 281 267 249 235 227 224 223 222 221 219 216 214 212 209 206 206 208 210 210 211 213 214 215 215 214 214 213 213 213 212 213 216 214 213 216 217 218 220 221 222 224 225 225 224 224 224 223 222 222 223 223 221 217 214 212 205
338 338 338 338 337 336 337 339 340 343 345 348 351 350 349 352 356 357 357 355 350 345 340 337 333 329 325 319 315 314 309 296 280 259 238 226 220 218 220 220 218 216 214 212 209 206 205 206 209 209 210 211 212 214 215 214 213 213 213 213 212 212 215 216 215 217 218 218 219 220 221 224 225 226 225 225 225 224 223 224 225 224 222 221 217 214 211
340 340 340 339 338 337 338 339 342 346 347 348 352 352 350 352 355 356 357 357 353 347 342 338 335 333 330 324 322 322 319 311 294 273 248 227 216 212 215 218 216 215 215 212 210 207 205 206 207 207 208 210 211 213 214 214 214 213 213 214 213 212 214 214 214 216 218 219 220 220 221 223 225 226 226 227 227 226 225 226 226 225 223 222 218 214 217
343 343 341 341 341 340 339 340 344 348 348 348 352 353 351 352 354 354 354 355 355 350 346 343 340 338 335 330 329 329 326 321 310 289 256 226 212 207 211 218 216 213 211 210 210 208 206 206 207 206 206 208 210 212 213 214 214 213 212 213 213 213 213 213 213 215 217 219 220 221 222 223 225 226 227 227 228 226 227 227 226 225 225 223 218 217 218
345 346 344 344 343 342 341 342 345 348 349 349 351 353 352 352 353 354 353 354 357 353 348 347 343 339 340 338 335 334 330 325 321 306 251 218 210 206 204 210 216 215 211 208 208 208 207 207 207 206 205 207 209 211 212 213 214 213 213 213 213 214 214 212 212 215 217 218 219 221 222 223 224 226 226 226 227 227 228 229 228 228 228 224 220 222 221
347 348 347 347 347 345 344 345 346 347 349 350 351 351 352 352 352 352 352 355 358 356 350 348 344 342 343 342 337 336 334 326 324 318 240 217 216 211 205 202 204 211 215 214 211 209 207 207 207 206 205 206 208 210 212 212 213 214 214 213 213 214 214 212 211 214 217 218 219 220 221 222 224 225 226 226 227 228 229 231 230 230 231 227 224 226 226
348 348 347 348 350 348 346 346 347 346 348 351 351 351 351 352 352 350 350 354 357 356 351 348 346 345 345 342 338 337 337 330 323 312 253 225 223 220 214 206 198 197 207 216 219 216 210 207 207 206 205 206 208 209 211 212 213 214 214 214 213 213 214 213 212 213 216 218 218 219 221 222 223 224 225 226 227 229 230 232 232 232 233 230 226 228 228
348 347 345 346 349 350 349 349 348 346 346 348 351 351 349 350 351 349 348 352 355 354 350 348 347 347 347 343 337 337 337 332 324 312 279 242 232 231 224 212 203 197 199 206 216 221 216 210 209 207 206 206 207 208 210 211 212 214 214 214 214 213 213 214 213 213 215 217 217 217 220 222 223 223 224 225 227 228 230 232 232 232 233 231 229 230 228
348 346 344 344 347 350 351 350 350 348 346 346 349 351 349 348 350 350 347 348 353 353 347 345 348 350 351 345 338 339 343 336 326 319 300 266 242 236 232 221 212 208 206 204 207 217 219 215 212 210 208 208 208 208 209 211 212 213 214 215 215 214 214 215 214 214 215 217 217 217 220 222 223 223 223 224 226 227 229 231 231 232 234 232 230 230 227
347 346 344 343 345 348 349 350 351 350 347 345 347 350 350 348 348 350 348 346 350 353 345 339 343 350 354 349 340 342 347 341 333 329 314 291 255 236 233 229 223 219 215 209 207 213 220 219 216 213 211 209 209 209 209 211 212 213 214 215 215 216 215 215 215 215 216 218 218 218 220 222 223 224 224 224 226 227 228 230 231 232 234 232 230 230 227
347 347 346 345 346 347 347 348 350 351 349 346 345 347 351 350 347 348 350 348 347 350 346 336 338 344 350 349 342 341 346 346 341 338 328 311 287 249 231 228 229 228 223 215 211 214 221 224 222 218 215 212 211 211 210 211 212 213 215 215 215 216 216 216 216 216 216 218 218 219 220 222 224 226 225 224 225 226 227 229 231 231 233 233 231 230 227
347 346 346 347 349 349 348 346 347 349 350 348 345 344 348 351 348 346 349 350 347 347 345 336 335 339 343 346 344 340 341 344 342 342 340 326 304 275 241 222 223 229 228 222 217 214 217 222 224 223 221 217 214 213 213 212 212 213 215 216 216 217 217 217 217 217 217 218 219 219 220 222 225 227 226 225 225 226 226 228 231 232 233 234 234 232 228
347 346 346 347 350 351 349 345 345 348 350 351 349 346 346 349 349 346 345 348 349 348 343 334 333 336 337 341 346 341 339 342 342 343 344 334 314 278 234 200 194 216 227 228 226 220 217 220 222 223 226 222 218 216 215 214 214 214 215 215 217 217 218 218 218 218 218 218 219 220 221 223 225 227 227 226 226 227 226 227 231 233 233 234 235 233 230
347 347 346 347 350 351 348 346 345 347 350 352 352 350 347 348 350 348 344 345 348 351 345 331 330 334 332 336 344 343 341 346 345 344 346 338 321 272 220 197 177 185 202 216 227 227 223 224 224 221 225 226 221 218 218 217 216 216 215 215 217 218 219 219 219 219 219 219 219 220 221 223 225 226 227 227 227 227 228 228 231 233 233 234 234 234 232
346 347 347 347 349 350 348 347 346 346 349 351 353 353 349 347 348 349 347 344 344 349 348 332 327 332 330 332 340 341 344 350 347 343 347 346 327 281 235 210 170 165 177 196 217 222 222 226 227 222 223 226 223 220 219 219 218 217 216 216 217 218 219 220 220 220 221 220 220 220 222 223 225 225 226 227 227 228 229 230 231 232 232 233 233 233 232
345 347 347 348 349 349 348 348 347 348 349 350 353 353 349 346 345 347 348 346 342 344 346 337 329 330 330 330 334 338 345 351 344 338 346 358 343 264 239 235 131 164 179 188 197 203 208 216 223 223 225 228 227 223 221 220 219 219 218 218 219 219 219 220 221 221 221 221 221 222 223 224 225 226 226 226 227 229 230 230 231 232 232 232 232 232 232
345 346 347 348 349 349 350 350 350 350 350 349 350 351 349 346 344 344 346 346 343 341 343 340 334 331 326 323 325 332 340 344 336 332 340 360 21 207 215 232 238 179 181 181 180 183 185 188 196 207 216 221 223 224 223 222 220 219 219 219 219 220 220 221 222 222 222 222 223 223 223 224 225 226 226 226 228 230 230 230 231 232 232 231 232 231 231
345 346 347 347 348 348 349 351 351 350 350 348 347 349 349 347 346 345 346 348 345 341 341 341 338 335 331 327 325 328 333 335 329 328 334 347 15 164 197 225 246 222 192 182 174 175 176 170 167 182 198 207 211 213 217 221 222 222 222 220 219 220 222 222 223 223 223 223 224 224 224 225 226 227 227 227 228 229 230 231 232 232 232 231 232 231 230
345 346 347 347 346 346 348 350 350 348 348 346 346 347 348 348 348 349 350 350 346 342 341 339 341 345 345 342 341 338 337 340 337 335 342 353 9 61 125 178 200 201 200 195 176 174 177 171 161 165 178 188 198 204 207 214 221 223 224 223 222 222 223 224 224 224 224 224 224 224 224 226 227 228 228 228 228 229 231 232 232 233 233 232 232 232 231
345 346 347 347 346 346 348 350 350 348 347 346 346 346 347 348 348 350 351 350 347 345 342 339 343 355 357 354 354 354 353 354 349 344 353 8 20 48 88 136 174 187 193 196 191 187 187 182 171 166 172 178 187 196 201 208 217 221 222 224 225 224 224 225 225 225 225 225 225 226 226 226 228 229 229 229 228 229 231 232 232 234 234 233 232 233 232
346 346 347 348 348 347 348 351 352 350 349 348 347 347 349 349 348 349 352 353 351 350 346 340 343 357 3 2 1 2 4 8 1 350 359 19 34 54 79 128 162 176 185 184 183 191 195 192 183 173 177 181 185 191 197 206 215 218 218 221 225 225 226 226 226 226 226 226 226 226 227 228 229 230 231 230 230 229 231 232 233 233 234 235 234 234 233
347 347 348 349 349 348 350 354 355 355 354 353 352 352 352 349 349 355 0 359 357 356 353 350 350 357 3 4 5 10 14 21 21 8 6 24 46 64 79 141 159 168 183 183 178 186 193 190 179 163 173 182 191 198 201 207 216 221 220 221 224 226 227 228 227 227 228 227 226 227 228 229 230 231 232 232 231 230 231 232 234 234 234 235 235 234 234
348 348 349 350 350 350 353 357 1 2 2 0 359 359 354 348 352 5 9 6 3 4 6 7 8 8 7 7 13 23 28 32 37 34 28 37 56 76 90 115 131 136 163 179 177 185 188 186 181 175 177 184 195 200 201 207 216 221 221 222 226 228 228 229 229 229 229 229 228 229 229 230 231 232 233 233 233 232 232 232 234 235 235 235 236 235 235
349 349 351 351 352 353 357 0 3 5 5 3 2 1 355 351 358 13 16 14 16 17 17 20 25 27 27 28 32 39 41 43 48 49 48 54 68 82 85 75 77 83 93 115 134 166 181 185 192 197 185 183 190 193 199 208 213 214 214 220 227 230 230 231 231 231 231 230 230 231 231 232 232 233 233 233 234 234 234 233 234 235 236 237 237 237 237
350 351 352 352 353 356 1 3 3 3 3 2 2 1 358 358 7 18 23 26 31 31 31 33 35 37 41 42 46 50 53 55 59 60 60 64 69 73 73 73 80 93 106 117 127 146 164 170 172 175 176 175 177 180 189 198 201 205 212 220 227 230 231 232 234 233 232 232 232 233 233 232 233 234 234 234 234 235 235 235 235 235 236 237 239 239 238
351 352 353 354 355 359 3 4 3 3 4 5 5 5 7 13 21 27 31 35 37 38 41 43 43 44 47 47 49 54 57 60 64 65 65 65 65 67 72 80 90 101 109 117 124 134 144 150 154 161 170 178 179 187 194 185 184 205 220 221 223 225 227 230 233 233 232 231 231 232 233 233 234 235 235 235 236 236 237 237 236 236 237 238 239 240 241
352 353 355 357 360 2 4 5 5 6 7 7 7 8 15 25 34 38 41 41 39 38 42 44 45 48 50 51 53 56 58 61 63 65 66 67 67 68 73 80 84 86 87 88 90 91 93 107 142 147 129 246 208 210 203 183 187 216 230 221 214 215 217 224 230 232 231 231 231 232 232 232 233 234 234 235 236 237 238 239 239 238 238 239 239 240 243
353 354 358 1 4 5 6 5 6 8 9 8 8 10 16 29 41 46 47 45 42 40 43 46 49 51 53 54 56 57 58 59 61 63 65 67 67 67 68 69 68 66 64 62 58 55 51 41 35 30 10 335 236 223 221 211 219 237 240 228 218 211 207 215 224 227 228 230 232 233 233 231 231 233 234 234 235 236 237 239 240 240 240 241 240 238 240
354 357 2 6 8 8 8 6 7 11 11 9 9 11 16 29 43 49 50 49 45 42 42 45 48 51 52 53 54 55 56 57 57 57 56 54 54 54 53 50 49 48 46 45 47 52 52 46 42 40 28 360 255 254 268 259 247 249 247 230 214 198 182 196 215 219 222 226 229 232 233 231 231 232 232 232 233 234 236 237 238 240 240 241 242 240 239
357 0 7 12 13 10 8 7 9 12 14 12 11 13 20 31 41 48 52 53 50 45 42 42 43 45 47 48 48 48 48 47 46 46 44 41 40 40 40 42 44 46 45 44 46 51 52 46 42 41 40 37 20 320 316 297 253 254 267 262 227 208 220 282 252 226 225 226 226 226 226 226 226 226 228 229 231 233 234 235 236 238 239 240 242 242 241
359 4 12 18 17 13 11 11 12 13 15 15 14 17 25 35 41 45 51 54 53 51 47 43 42 41 41 42 42 41 40 38 37 37 38 36 34 35 39 43 44 45 44 41 38 40 39 33 28 25 22 19 18 15 4 351 311 276 272 266 248 242 270 285 275 256 245 238 229 222 218 217 218 220 223 226 229 230 231 231 233 235 236 237 238 239 239
2 9 17 21 20 18 16 16 16 16 16 18 19 21 27 37 44 46 49 51 54 54 52 49 47 43 41 41 41 38 37 35 33 34 36 37 37 39 40 40 37 35 31 26 23 25 26 25 23 20 13 7 9 12 7 2 358 311 245 246 250 260 270 270 269 270 266 251 235 225 218 212 211 212 215 219 222 224 226 227 228 230 233 233 231 232 235
8 16 21 22 21 21 20 20 23 24 23 24 27 27 30 37 44 47 48 49 50 51 50 49 48 45 43 42 42 40 39 39 39 39 39 38 36 34 32 32 30 26 22 22 27 33 37 38 36 30 24 20 18 12 2 5 70 139 162 177 214 318 283 267 268 276 275 264 246 229 220 213 207 204 205 208 210 213 217 220 222 224 226 228 225 225 229
15 22 24 23 22 23 24 24 27 31 32 34 37 38 39 42 45 47 49 49 48 48 47 45 43 41 39 38 38 37 37 36 36 36 36 35 34 35 36 38 40 40 41 44 48 50 50 48 43 35 29 26 22 13 6 61 150 163 200 304 342 334 299 272 264 270 280 277 247 218 215 213 206 199 195 197 201 205 208 212 215 216 218 219 216 214 220
22 27 29 27 25 26 27 27 29 33 37 42 46 49 51 53 53 53 54 55 54 53 51 48 47 45 43 43 43 43 42 43 46 50 54 57 59 62 63 64 64 65 65 64 63 61 57 52 48 44 37 27 14 8 4 236 224 290 310 322 325 312 299 292 273 256 267 278 219 194 201 206 200 191 185 187 193 199 203 207 211 213 214 212 207 204 210
26 31 32 30 28 27 26 26 30 36 42 47 53 58 61 61 59 58 59 60 61 60 58 57 57 56 55 56 57 58 59 63 67 69 69 69 70 71 72 71 71 71 69 67 66 66 62 58 54 50 44 35 21 8 357 349 3 359 344 336 339 331 332 337 308 241 233 236 170 173 176 177 178 178 180 184 187 191 198 205 211 212 211 209 204 201 205
30 33 33 30 27 25 22 22 29 40 47 52 59 64 65 63 61 60 60 62 63 63 62 61 61 62 62 64 66 68 70 72 73 72 69 68 68 70 70 68 66 64 63 63 64 64 62 60 58 53 44 35 22 3 341 335 358 11 4 2 4 357 348 346 321 218 203 168 156 166 172 173 173 175 178 181 185 188 194 202 209 210 209 206 203 201 204
32 34 32 29 25 23 21 21 27 41 52 57 62 65 65 63 62 61 60 60 62 62 61 60 60 62 64 66 69 72 73 73 72 70 68 67 67 67 67 65 62 59 57 56 58 58 58 59 59 55 48 41 33 20 5 355 347 319 342 2 12 6 359 11 108 157 171 162 157 166 178 185 185 179 174 173 184 193 196 202 208 209 206 203 202 203 205
32 32 30 26 21 20 19 19 23 36 51 57 59 61 63 63 62 60 58 57 59 59 60 60 62 65 69 71 73 74 73 71 68 67 66 64 63 63 64 63 62 59 56 53 52 51 51 52 51 49 47 46 44 39 35 40 65 115 331 354 31 48 43 76 112 128 148 160 162 167 176 184 191 190 185 182 190 190 192 200 207 207 204 203 203 204 206
32 30 27 22 18 16 16 17 21 32 45 52 53 55 57 58 58 57 57 56 57 59 62 64 66 68 70 71 72 72 71 69 68 68 67 65 63 62 62 62 61 59 57 54 51 48 45 43 40 39 41 46 50 53 55 59 72 86 71 62 81 86 82 102 119 124 134 146 155 164 170 175 184 190 190 184 166 172 182 194 200 200 202 204 203 201 201
34 29 23 19 15 14 16 20 25 32 40 45 47 50 53 53 53 55 57 57 57 59 61 62 63 64 64 64 65 65 65 66 67 68 70 70 69 67 66 65 62 60 57 55 52 48 45 40 35 34 39 46 52 57 63 68 75 88 96 94 91 85 90 109 122 127 131 135 138 147 157 163 171 179 179 161 134 157 177 192 198 199 202 204 204 203 201
35 29 23 17 14 16 24 29 32 34 37 38 40 46 52 54 53 52 51 51 52 53 53 52 52 52 51 51 53 54 56 59 61 61 63 66 67 67 67 67 67 64 60 56 51 48 46 41 34 32 37 43 47 54 63 68 72 81 97 114 117 111 111 120 126 126 129 133 133 135 144 153 159 165 167 160 146 150 161 178 195 202 204 204 207 211 216
34 28 23 16 14 24 34 38 39 40 39 37 35 37 46 54 56 54 49 45 43 43 42 39 39 38 36 33 32 33 36 41 47 49 49 50 53 56 59 60 62 62 60 56 51 46 42 38 30 28 33 37 39 44 54 63 69 76 86 100 114 118 118 123 127 126 127 132 135 138 147 154 156 159 168 172 166 159 161 169 185 198 204 206 209 214 221
28 22 17 11 13 26 37 40 41 41 41 39 35 33 32 37 44 51 53 50 45 40 36 30 25 24 25 24 22 22 22 21 23 26 27 28 35 41 42 40 43 49 51 50 47 42 37 33 30 29 32 34 35 38 45 55 63 72 80 87 95 103 105 109 122 128 131 134 139 146 155 162 162 164 174 180 175 172 178 181 182 186 194 201 207 213 218
20 12 8 7 12 22 30 32 33 33 33 33 34 33 28 22 18 20 32 41 42 40 41 35 25 17 17 17 14 13 14 12 7 7 10 11 13 17 18 21 28 37 42 42 41 38 33 30 30 31 33 33 34 37 43 48 53 62 71 79 87 93 97 103 116 128 136 145 152 157 165 172 173 173 178 183 183 184 191 195 191 189 191 194 198 204 211
11 3 2 6 13 19 21 23 23 23 23 25 27 28 26 23 15 7 6 10 13 18 32 42 36 26 21 18 11 3 359 358 356 356 358 357 356 358 3 8 15 25 31 32 33 33 30 26 25 25 26 28 30 34 39 44 49 54 60 69 78 87 94 100 106 114 126 143 157 164 172 181 180 171 172 178 183 184 188 192 195 197 198 195 193 195 201
4 358 0 8 15 17 18 20 20 19 19 21 22 21 23 26 23 17 13 12 10 8 12 22 28 30 31 25 13 1 354 355 355 352 351 351 350 350 352 356 2 10 14 14 15 19 22 21 19 17 16 18 23 28 32 36 41 45 48 53 61 74 87 95 98 101 108 120 134 146 158 168 170 167 168 173 177 179 183 189 195 197 197 195 193 191 191
2 1 6 13 16 16 17 19 19 19 18 17 16 16 19 23 26 26 24 20 17 16 13 9 10 18 24 21 9 357 355 359 357 352 349 349 348 346 345 348 353 357 358 357 358 2 6 9 11 11 8 8 11 17 25 32 37 39 39 40 42 48 62 79 93 106 116 119 119 124 137 148 155 159 162 163 163 164 168 174 180 184 186 187 186 183 181
9 10 14 17 18 18 19 20 22 23 23 21 19 18 20 21 23 25 26 23 18 14 8 3 7 14 15 7 358 356 360 1 356 349 346 345 343 341 341 343 345 346 346 346 347 349 352 355 359 1 2 1 2 4 10 19 28 34 36 36 33 32 37 48 63 84 112 134 148 156 156 155 159 164 167 167 165 163 163 166 170 174 178 179 179 180 183
Height
5716 5711 5706 5700 5695 5689 5684 5678 5672 5666 5659 5652 5645 5637 5628 5618 5610 5604 5600 5598 5597 5596 5595 5595 5595 5594 5594 5593 5593 5591 5590 5591 5592 5594 5596 5599 5604 5609 5616 5622 5628 5634 5640 5646 5654 5661 5667 5673 5678 5683 5689 5695 5702 5708 5714 5719 5725 5730 5733 5737 5744 5750 5756 5761 5764 5768 5773 5773 5774 5779 5783 5786 5789 5791 5794 5799 5802 5805 5808 5813 5818 5821 5824 5827 5829 5833 5837
5713 5707 5702 5696 5691 5685 5679 5674 5667 5661 5654 5647 5640 5633 5625 5616 5608 5603 5600 5598 5596 5595 5594 5593 5592 5591 5590 5589 5589 5587 5585 5585 5585 5587 5590 5593 5595 5600 5606 5612 5616 5622 5629 5636 5645 5652 5658 5663 5668 5674 5681 5687 5693 5699 5705 5710 5715 5721 5725 5730 5739 5744 5748 5754 5757 5759 5763 5764 5767 5773 5776 5778 5781 5785 5789 5793 5797 5800 5803 5808 5813 5814 5818 5823 5826 5830 5833
5709 5704 5698 5692 5686 5681 5675 5669 5663 5656 5649 5643 5636 5629 5623 5615 5608 5603 5600 5598 5596 5595 5593 5592 5590 5589 5587 5586 5584 5583 5581 5580 5580 5581 5583 5585 5588 5592 5597 5602 5606 5613 5620 5627 5635 5642 5648 5654 5659 5666 5673 5679 5685 5691 5696 5702 5707 5714 5720 5726 5733 5737 5740 5746 5749 5752 5757 5759 5762 5766 5769 5772 5776 5779 5784 5788 5791 5795 5799 5804 5807 5809 5814 5819 5823 5826 5829
5706 5700 5694 5688 5682 5677 5671 5665 5659 5653 5646 5640 5633 5626 5620 5614 5609 5604 5601 5598 5596 5594 5592 5591 5589 5586 5585 5583 5581 5579 5577 5576 5575 5576 5577 5579 5583 5586 5590 5593 5597 5604 5611 5619 5627 5633 5639 5644 5649 5657 5663 5669 5676 5682 5688 5694 5700 5706 5713 5719 5725 5729 5732 5738 5743 5746 5750 5754 5756 5761 5765 5768 5771 5775 5779 5783 5786 5791 5796 5800 5802 5806 5812 5817 5819 5823 5826
5702 5696 5690 5684 5679 5673 5667 5661 5655 5649 5644 5638 5632 5625 5619 5613 5608 5605 5601 5598 5596 5594 5591 5589 5587 5584 5582 5580 5578 5577 5575 5573 5572 5572 5572 5574 5577 5580 5583 5586 5590 5596 5602 5610 5618 5624 5630 5635 5640 5647 5654 5661 5668 5673 5679 5686 5692 5698 5704 5710 5716 5722 5726 5732 5738 5741 5744 5747 5751 5756 5761 5763 5766 5771 5775 5778 5782 5788 5792 5795 5798 5804 5809 5812 5817 5821 5823
5699 5693 5687 5681 5676 5670 5664 5658 5652 5647 5641 5635 5630 5624 5618 5612 5607 5603 5600 5597 5595 5593 5590 5588 5585 5583 5580 5578 5576 5575 5573 5571 5570 5569 5569 5569 5572 5576 5578 5580 5583 5589 5595 5602 5609 5616 5622 5627 5631 5638 5645 5652 5659 5664 5670 5677 5683 5689 5696 5701 5709 5715 5718 5725 5731 5735 5739 5743 5747 5751 5755 5758 5762 5766 5770 5774 5779 5784 5788 5790 5795 5801 5804 5808 5814 5819 5821
5696 5690 5684 5678 5673 5667 5662 5656 5650 5644 5638 5633 5628 5623 5618 5612 5607 5602 5598 5596 5594 5591 5589 5586 5583 5581 5579 5577 5575 5574 5572 5570 5568 5567 5567 5567 5569 5572 5575 5576 5578 5582 5588 5594 5600 5607 5614 5617 5620 5628 5637 5644 5650 5655 5661 5667 5673 5681 5688 5694 5701 5707 5711 5717 5724 5728 5732 5737 5741 5746 5750 5754 5758 5761 5765 5770 5774 5779 5782 5784 5790 5796 5798 5805 5812 5815 5817
5693 5687 5681 5676 5670 5665 5659 5653 5647 5642 5636 5631 5626 5622 5617 5612 5607 5603 5598 5595 5593 5590 5588 5585 5582 5580 5578 5576 5574 5573 5571 5569 5567 5566 5566 5567 5568 5570 5572 5573 5575 5578 5582 5586 5591 5596 5602 5606 5612 5621 5630 5635 5640 5645 5651 5658 5666 5673 5679 5686 5693 5698 5703 5711 5719 5723 5726 5730 5735 5740 5744 5749 5752 5755 5760 5765 5768 5773 5776 5779 5786 5791 5794 5802 5809 5810 5814
5690 5684 5678 5673 5668 5662 5656 5651 5645 5640 5635 5630 5624 5620 5616 5611 5606 5602 5598 5595 5592 5589 5587 5585 5582 5580 5578 5576 5573 5572 5570 5568 5566 5565 5565 5566 5566 5567 5569 5570 5572 5575 5578 5581 5583 5587 5593 5598 5605 5614 5621 5626 5631 5638 5644 5652 5660 5665 5671 5679 5685 5690 5696 5705 5712 5717 5720 5724 5729 5734 5738 5743 5746 5748 5754 5759 5763 5767 5771 5775 5781 5785 5789 5798 5804 5806 5811
5687 5681 5675 5670 5666 5660 5654 5649 5644 5638 5633 5629 5623 5618 5614 5610 5605 5601 5598 5594 5591 5589 5586 5584 5581 5579 5577 5575 5573 5571 5569 5567 5566 5564 5563 5563 5563 5564 5565 5567 5570 5573 5575 5577 5579 5582 5587 5593 5598 5606 5613 5619 5625 5632 5638 5645 5652 5657 5664 5671 5677 5683 5691 5698 5704 5709 5713 5715 5721 5728 5732 5736 5739 5743 5749 5754 5758 5763 5767 5770 5776 5781 5785 5793 5799 5801 5806
5685 5678 5672 5667 5663 5658 5653 5647 5642 5637 5631 5627 5622 5617 5613 5609 5605 5601 5597 5594 5590 5588 5586 5583 5581 5579 5576 5574 5572 5570 5568 5566 5565 5563 5562 5561 5561 5562 5563 5565 5568 5570 5572 5574 5577 5579 5584 5589 5593 5600 5607 5613 5619 5625 5631 5638 5644 5650 5657 5663 5669 5677 5684 5689 5696 5702 5705 5708 5715 5722 5726 5729 5733 5737 5742 5748 5752 5758 5761 5765 5771 5775 5779 5787 5793 5795 5800
5683 5677 5670 5665 5660 5655 5650 5645 5641 5635 5630 5625 5621 5616 5612 5608 5604 5600 5596 5593 5590 5587 5585 5582 5580 5578 5576 5573 5571 5569 5567 5565 5564 5563 5561 5560 5560 5561 5562 5564 5567 5568 5569 5572 5575 5578 5581 5586 5590 5595 5602 5608 5614 5619 5625 5631 5637 5643 5650 5656 5662 5669 5676 5682 5688 5695 5699 5702 5709 5717 5720 5722 5725 5729 5735 5742 5748 5753 5756 5760 5766 5770 5774 5780 5785 5788 5795
5682 5676 5670 5664 5658 5653 5648 5643 5639 5634 5629 5624 5619 5615 5611 5606 5602 5599 5595 5592 5589 5587 5584 5581 5579 5577 5575 5573 5571 5568 5567 5565 5563 5562 5561 5560 5559 5559 5560 5562 5564 5565 5567 5570 5574 5576 5579 5583 5587 5592 5597 5603 5608 5613 5619 5625 5631 5637 5642 5649 5656 5662 5668 5674 5680 5687 5692 5696 5703 5710 5714 5716 5718 5723 5731 5738 5743 5747 5751 5755 5760 5764 5766 5772 5779 5784 5791
5680 5674 5669 5663 5658 5653 5647 5642 5637 5633 5628 5623 5618 5614 5610 5605 5601 5597 5594 5590 5588 5585 5583 5580 5578 5576 5574 5572 5570 5568 5567 5565 5563 5562 5560 5559 5558 5558 5559 5560 5561 5563 5566 5569 5572 5575 5577 5581 5586 5589 5593 5598 5603 5609 5615 5620 5625 5630 5636 5643 5649 5654 5660 5666 5673 5680 5685 5691 5697 5703 5707 5711 5714 5718 5725 5731 5735 5740 5745 5750 5753 5756 5760 5766 5773 5779 5786
5679 5673 5667 5662 5657 5652 5646 5641 5636 5631 5627 5622 5617 5612 5608 5605 5600 5596 5593 5590 5586 5584 5582 5579 5577 5575 5573 5572 5570 5568 5567 5565 5563 5562 5560 5559 5558 5557 5558 5558 5560 5561 5564 5567 5571 5574 5577 5581 5585 5587 5590 5594 5599 5605 5610 5615 5620 5625 5631 5637 5642 5647 5653 5659 5666 5672 5678 5684 5689 5695 5701 5706 5710 5712 5717 5724 5729 5734 5741 5746 5747 5749 5755 5761 5767 5773 5780
5678 5672 5666 5661 5656 5651 5646 5640 5635 5630 5625 5621 5616 5611 5607 5603 5599 5595 5592 5589 5585 5583 5580 5578 5576 5574 5572 5571 5570 5568 5566 5565 5563 5562 5560 5559 5558 5557 5557 5558 5559 5561 5563 5567 5571 5573 5576 5579 5582 5585 5588 5590 5595 5601 5605 5610 5615 5619 5624 5630 5636 5641 5647 5652 5658 5664 5670 5677 5684 5689 5695 5700 5702 5704 5709 5717 5724 5728 5735 5742 5742 5744 5751 5756 5760 5767 5774
5676 5671 5665 5660 5654 5649 5645 5640 5634 5629 5624 5620 5615 5611 5606 5602 5599 5594 5591 5587 5584 5582 5579 5577 5575 5573 5571 5570 5569 5567 5566 5564 5563 5561 5560 5559 5557 5557 5557 5558 5559 5560 5562 5565 5569 5572 5574 5577 5579 5583 5585 5587 5591 5596 5600 5604 5610 5613 5618 5624 5630 5635 5639 5644 5651 5657 5663 5671 5678 5683 5687 5691 5693 5697 5702 5710 5717 5722 5729 5735 5736 5739 5745 5750 5754 5761 5767
5675 5670 5664 5659 5653 5648 5643 5639 5633 5628 5623 5619 5614 5610 5606 5602 5598 5594 5590 5586 5583 5581 5578 5576 5573 5572 5570 5569 5568 5566 5565 5564 5563 5561 5560 5559 5558 5557 5557 5558 5559 5560 5561 5563 5565 5568 5571 5574 5576 5579 5581 5583 5586 5591 5595 5599 5604 5608 5614 5619 5624 5629 5633 5638 5645 5651 5657 5663 5670 5675 5679 5682 5686 5691 5696 5703 5711 5716 5722 5727 5729 5733 5739 5744 5748 5755 5761
5673 5668 5663 5658 5652 5647 5642 5638 5633 5628 5623 5618 5614 5610 5606 5601 5597 5593 5590 5586 5583 5580 5577 5575 5572 5571 5569 5568 5567 5566 5565 5564 5562 5561 5560 5559 5558 5558 5558 5558 5559 5560 5561 5562 5564 5565 5568 5571 5573 5575 5578 5580 5583 5587 5591 5595 5599 5604 5610 5614 5618 5622 5627 5632 5637 5643 5650 5656 5662 5667 5672 5674 5678 5683 5690 5698 5705 5709 5714 5719 5722 5727 5733 5738 5743 5749 5755
5672 5667 5662 5657 5651 5646 5641 5637 5632 5628 5623 5618 5613 5610 5606 5601 5596 5593 5589 5586 5582 5579 5576 5574 5571 5570 5568 5567 5565 5564 5564 5563 5561 5560 5559 5559 5559 5558 5559 5559 5560 5561 5561 5562 5564 5565 5567 5569 5571 5573 5575 5577 5580 5584 5587 5591 5595 5599 5603 5606 5611 5616 5621 5626 5631 5637 5643 5648 5653 5658 5663 5665 5670 5678 5685 5693 5698 5701 5706 5712 5717 5720 5726 5732 5737 5743 5749
5672 5667 5661 5656 5650 5645 5641 5636 5631 5627 5622 5618 5613 5609 5605 5601 5596 5593 5589 5586 5582 5578 5576 5573 5571 5569 5567 5565 5564 5564 5563 5562 5561 5560 5559 5559 5559 5559 5559 5560 5560 5561 5562 5563 5564 5565 5566 5568 5569 5571 5573 5575 5578 5580 5583 5587 5591 5594 5597 5601 5607 5612 5615 5619 5623 5628 5633 5639 5644 5650 5655 5660 5667 5674 5680 5685 5691 5695 5701 5706 5710 5714 5720 5726 5731 5736 5742
5671 5666 5661 5655 5650 5644 5639 5635 5630 5626 5622 5617 5613 5609 5605 5600 5596 5592 5589 5586 5582 5578 5575 5572 5570 5568 5566 5565 5564 5563 5562 5561 5561 5560 5559 5560 5560 5560 5560 5560 5561 5561 5562 5562 5563 5565 5565 5567 5568 5570 5572 5574 5576 5578 5581 5584 5587 5590 5593 5598 5603 5607 5609 5611 5615 5619 5625 5632 5638 5644 5651 5658 5662 5666 5671 5678 5685 5691 5695 5699 5703 5708 5714 5720 5725 5730 5736
5670 5665 5660 5655 5649 5644 5638 5634 5630 5625 5621 5617 5612 5608 5604 5599 5595 5592 5589 5585 5582 5578 5575 5572 5570 5567 5565 5564 5563 5562 5561 5561 5560 5559 5559 5560 5560 5560 5560 5560 5560 5561 5561 5562 5563 5564 5565 5566 5567 5569 5571 5572 5574 5576 5579 5582 5583 5586 5590 5593 5597 5600 5602 5605 5609 5614 5619 5627 5634 5640 5647 5653 5655 5658 5665 5673 5680 5685 5688 5691 5697 5702 5707 5713 5720 5725 5730
5669 5664 5659 5654 5649 5643 5638 5634 5629 5625 5620 5616 5612 5608 5603 5599 5595 5592 5588 5585 5582 5578 5575 5571 5569 5567 5566 5564 5563 5562 5561 5561 5560 5559 5559 5559 5560 5560 5560 5560 5560 5561 5561 5562 5563 5564 5565 5566 5567 5569 5570 5572 5573 5575 5577 5579 5580 5583 5586 5589 5591 5594 5596 5600 5605 5609 5613 5621 5628 5634 5640 5645 5648 5653 5660 5666 5672 5678 5681 5685 5690 5695 5700 5707 5714 5719 5724
5668 5663 5658 5653 5648 5643 5637 5633 5629 5625 5620 5616 5612 5608 5603 5599 5595 5592 5589 5585 5581 5578 5575 5572 5569 5567 5566 5565 5563 5562 5561 5561 5560 5560 5560 5560 5560 5560 5560 5560 5560 5561 5561 5562 5563 5564 5565 5567 5568 5569 5570 5571 5573 5574 5576 5577 5578 5580 5583 5586 5587 5589 5591 5595 5600 5605 5608 5614 5623 5630 5635 5639 5644 5649 5654 5658 5664 5670 5675 5680 5684 5689 5695 5700 5706 5712 5718
5668 5663 5658 5653 5648 5643 5638 5633 5629 5625 5620 5616 5612 5608 5604 5599 5596 5593 5589 5585 5582 5579 5576 5572 5570 5568 5567 5565 5564 5563 5562 5561 5561 5561 5560 5560 5561 5561 5561 5561 5561 5562 5562 5563 5564 5564 5566 5567 5568 5569 5570 5571 5572 5573 5574 5575 5576 5578 5581 5583 5584 5585 5588 5592 5596 5599 5604 5611 5620 5626 5629 5633 5638 5642 5646 5651 5657 5664 5670 5674 5678 5683 5689 5694 5700 5705 5711
5667 5662 5658 5653 5648 5643 5639 5634 5629 5626 5622 5618 5613 5609 5605 5600 5597 5595 5591 5587 5583 5580 5576 5574 5571 5569 5568 5566 5565 5564 5563 5562 5562 5562 5561 5561 5561 5562 5562 5562 5562 5563 5563 5563 5564 5565 5566 5568 5569 5569 5570 5571 5571 5572 5573 5574 5575 5576 5578 5580 5581 5583 5586 5589 5591 5595 5601 5609 5616 5619 5621 5626 5631 5634 5638 5645 5651 5657 5663 5668 5673 5678 5684 5690 5695 5700 5705
5666 5662 5657 5653 5648 5644 5639 5635 5630 5627 5623 5619 5615 5611 5607 5602 5599 5597 5593 5588 5584 5581 5578 5576 5573 5571 5570 5568 5567 5566 5565 5564 5563 5563 5563 5563 5563 5563 5563 5563 5563 5563 5563 5564 5565 5566 5567 5569 5569 5569 5570 5570 5571 5572 5573 5573 5574 5575 5576 5577 5579 5581 5584 5586 5588 5592 5599 5606 5610 5610 5613 5618 5624 5628 5633 5640 5645 5650 5656 5662 5668 5674 5679 5685 5690 5694 5699
5666 5661 5657 5653 5648 5644 5640 5636 5631 5627 5624 5620 5617 5613 5609 5605 5602 5599 5595 5591 5587 5584 5581 5578 5576 5574 5572 5571 5570 5568 5568 5567 5566 5565 5565 5565 5565 5564 5564 5564 5564 5564 5564 5565 5566 5566 5567 5568 5569 5570 5570 5570 5571 5572 5573 5573 5574 5574 5574 5575 5577 5579 5581 5583 5585 5589 5595 5599 5600 5601 5604 5612 5618 5623 5628 5634 5640 5645 5651 5656 5662 5669 5674 5679 5684 5688 5693
5665 5662 5658 5653 5649 5644 5640 5636 5632 5628 5625 5622 5618 5615 5611 5607 5604 5601 5598 5595 5592 5589 5585 5583 5580 5578 5576 5575 5573 5572 5571 5569 5569 5568 5568 5567 5567 5567 5567 5567 5567 5567 5567 5567 5568 5568 5569 5569 5570 5570 5571 5571 5571 5572 5572 5573 5573 5573 5573 5573 5574 5576 5578 5580 5582 5586 5589 5591 5591 5593 5599 5607 5613 5616 5622 5629 5635 5640 5645 5650 5656 5663 5669 5673 5679 5685 5689
5666 5662 5658 5654 5649 5645 5641 5637 5633 5629 5626 5623 5620 5617 5614 5610 5606 5603 5601 5598 5596 5593 5590 5588 5585 5583 5581 5579 5577 5575 5574 5573 5572 5571 5571 5570 5570 5570 5569 5569 5569 5569 5569 5569 5569 5569 5570 5570 5570 5571 5571 5571 5572 5572 5572 5572 5573 5572 5571 5572 5573 5573 5575 5577 5579 5582 5584 5584 5585 5589 5596 5603 5606 5610 5617 5624 5628 5633 5639 5645 5650 5657 5662 5667 5673 5681 5685
5667 5663 5659 5654 5650 5645 5641 5638 5634 5631 5628 5625 5622 5619 5616 5612 5609 5606 5603 5601 5599 5597 5594 5592 5589 5587 5585 5583 5581 5579 5578 5577 5576 5574 5574 5573 5573 5572 5572 5571 5570 5570 5570 5569 5569 5570 5570 5570 5571 5571 5572 5572 5572 5572 5572 5572 5572 5571 5570 5571 5571 5572 5573 5575 5576 5577 5578 5578 5580 5585 5593 5598 5601 5606 5613 5617 5621 5626 5633 5639 5644 5650 5656 5661 5667 5674 5678
5667 5664 5659 5655 5650 5645 5642 5639 5635 5632 5630 5627 5624 5621 5618 5614 5611 5608 5606 5603 5601 5599 5597 5595 5593 5591 5589 5587 5585 5583 5582 5581 5579 5578 5577 5576 5576 5575 5574 5573 5572 5571 5571 5571 5571 5571 5571 5571 5572 5572 5572 5572 5572 5572 5572 5572 5571 5571 5570 5570 5570 5571 5572 5573 5574 5574 5575 5574 5576 5581 5587 5592 5595 5601 5606 5611 5616 5622 5628 5634 5640 5645 5650 5655 5661 5667 5672
5668 5664 5660 5655 5650 5647 5643 5640 5637 5634 5632 5629 5626 5623 5620 5616 5613 5611 5608 5606 5604 5602 5600 5598 5596 5594 5592 5590 5588 5587 5585 5584 5583 5581 5580 5579 5579 5578 5577 5576 5575 5574 5574 5574 5574 5573 5573 5573 5573 5573 5572 5572 5572 5572 5572 5572 5571 5570 5570 5569 5569 5569 5570 5571 5571 5572 5572 5572 5573 5576 5580 5584 5588 5594 5600 5606 5612 5618 5624 5630 5635 5639 5644 5651 5656 5661 5666
5670 5665 5659 5655 5652 5649 5645 5642 5639 5636 5634 5631 5628 5625 5622 5619 5616 5613 5611 5609 5606 5604 5602 5600 5598 5597 5595 5593 5592 5590 5589 5587 5586 5584 5583 5582 5582 5581 5579 5578 5577 5577 5576 5576 5576 5575 5575 5575 5574 5573 5573 5572 5572 5572 5572 5571 5571 5570 5569 5569 5569 5569 5569 5570 5570 5569 5569 5569 5570 5572 5573 5577 5582 5588 5595 5602 5608 5613 5619 5624 5629 5634 5640 5646 5650 5656 5661
5670 5665 5659 5655 5653 5651 5648 5645 5642 5639 5636 5633 5630 5627 5625 5622 5618 5616 5614 5612 5609 5607 5605 5603 5601 5600 5598 5596 5594 5593 5592 5590 5589 5587 5586 5585 5584 5583 5582 5581 5580 5580 5579 5578 5578 5577 5576 5576 5575 5574 5574 5573 5573 5572 5572 5571 5570 5570 5569 5569 5568 5569 5569 5569 5568 5567 5567 5567 5567 5568 5569 5573 5578 5584 5590 5597 5603 5609 5615 5618 5623 5631 5637 5641 5645 5651 5656
5671 5666 5660 5657 5655 5653 5651 5648 5644 5641 5638 5635 5633 5630 5628 5625 5622 5619 5617 5615 5612 5610 5608 5606 5604 5602 5600 5599 5597 5596 5594 5593 5591 5590 5589 5587 5586 5585 5584 5583 5583 5582 5581 5580 5580 5579 5578 5578 5577 5576 5575 5574 5574 5573 5572 5572 5571 5570 5569 5569 5568 5568 5568 5567 5566 5566 5566 5565 5564 5565 5567 5571 5576 5581 5588 5594 5601 5607 5611 5615 5621 5628 5633 5636 5641 5648 5652
5672 5667 5663 5660 5658 5656 5654 5651 5647 5643 5641 5638 5636 5634 5631 5628 5626 5623 5620 5618 5615 5613 5612 5609 5607 5605 5604 5602 5600 5599 5597 5596 5595 5593 5592 5591 5589 5588 5587 5586 5586 5585 5584 5583 5582 5581 5580 5579 5578 5576 5575 5575 5574 5573 5572 5572 5571 5570 5570 5569 5568 5568 5568 5567 5566 5566 5567 5565 5564 5565 5567 5571 5576 5582 5589 5595 5601 5606 5610 5615 5619 5624 5627 5632 5638 5644 5649
5673 5668 5665 5663 5662 5660 5658 5654 5650 5647 5644 5642 5639 5637 5634 5631 5629 5626 5624 5622 5619 5617 5615 5613 5611 5609 5608 5606 5604 5603 5601 5600 5599 5598 5596 5595 5594 5592 5591 5590 5590 5589 5587 5586 5585 5584 5582 5581 5580 5578 5576 5575 5574 5573 5572 5571 5570 5570 5569 5569 5568 5568 5568 5567 5566 5567 5568 5568 5567 5567 5570 5574 5579 5586 5591 5596 5600 5605 5610 5613 5616 5619 5623 5629 5634 5640 5645
5675 5671 5668 5666 5665 5664 5661 5658 5655 5651 5648 5646 5643 5640 5637 5634 5632 5630 5628 5626 5624 5621 5620 5618 5616 5614 5612 5611 5609 5608 5607 5605 5604 5603 5601 5600 5598 5597 5595 5594 5593 5592 5590 5589 5588 5586 5584 5583 5581 5579 5578 5576 5574 5572 5571 5570 5570 5569 5569 5569 5569 5568 5568 5567 5567 5568 5570 5571 5571 5572 5574 5577 5582 5588 5592 5596 5600 5604 5608 5611 5613 5616 5621 5626 5631 5636 5641
5676 5672 5670 5668 5667 5666 5664 5661 5658 5655 5652 5649 5646 5643 5640 5637 5636 5634 5632 5630 5628 5626 5625 5624 5622 5620 5618 5616 5614 5613 5612 5611 5609 5607 5605 5604 5603 5601 5599 5598 5597 5595 5593 5592 5590 5588 5586 5584 5583 5582 5580 5578 5575 5572 5570 5570 5570 5570 5569 5570 5570 5569 5569 5568 5568 5569 5571 5574 5575 5577 5579 5581 5585 5589 5594 5597 5600 5602 5605 5608 5611 5614 5619 5624 5629 5633 5637
5677 5673 5671 5670 5669 5668 5667 5665 5662 5659 5656 5653 5650 5647 5643 5641 5639 5638 5636 5634 5632 5631 5630 5629 5627 5625 5623 5622 5620 5618 5617 5615 5613 5611 5609 5608 5606 5604 5603 5601 5600 5598 5597 5596 5594 5591 5589 5587 5586 5584 5583 5581 5579 5575 5571 5570 5570 5570 5570 5571 5572 5572 5571 5570 5570 5571 5574 5576 5578 5579 5581 5584 5587 5590 5594 5597 5598 5600 5603 5606 5609 5613 5618 5623 5627 5631 5635
5677 5675 5674 5673 5672 5671 5670 5669 5666 5662 5658 5655 5652 5650 5647 5644 5643 5641 5639 5638 5637 5635 5634 5633 5631 5630 5628 5627 5625 5623 5621 5619 5617 5615 5613 5612 5610 5608 5607 5605 5603 5602 5601 5599 5596 5594 5591 5590 5589 5588 5586 5584 5582 5579 5575 5572 5572 5573 5573 5573 5574 5574 5574 5573 5573 5575 5576 5578 5580 5581 5583 5585 5588 5592 5596 5598 5598 5599 5602 5604 5607 5612 5616 5621 5626 5629 5632
5680 5678 5678 5677 5676 5675 5673 5671 5669 5665 5660 5657 5655 5652 5650 5648 5647 5645 5643 5642 5641 5640 5638 5637 5636 5634 5632 5631 5629 5627 5625 5623 5621 5619 5617 5615 5614 5612 5609 5607 5606 5606 5604 5601 5599 5597 5595 5594 5594 5593 5590 5588 5585 5583 5580 5577 5575 5576 5576 5576 5577 5577 5577 5577 5577 5578 5579 5580 5582 5583 5585 5588 5590 5594 5598 5600 5601 5601 5603 5605 5607 5611 5615 5620 5624 5627 5629
5682 5682 5682 5681 5680 5678 5675 5672 5669 5665 5661 5659 5657 5655 5653 5651 5650 5649 5648 5647 5645 5644 5642 5641 5639 5638 5636 5634 5633 5631 5629 5627 5625 5623 5621 5619 5617 5615 5612 5611 5611 5609 5606 5603 5601 5600 5599 5599 5599 5597 5594 5590 5589 5587 5585 5582 5580 5579 5579 5579 5579 5580 5580 5580 5581 5582 5583 5584 5585 5586 5588 5591 5593 5596 5600 5602 5603 5603 5604 5606 5608 5611 5614 5618 5621 5624 5626
5686 5686 5686 5685 5682 5679 5675 5672 5669 5666 5663 5661 5660 5658 5656 5654 5653 5652 5651 5649 5648 5647 5645 5644 5643 5641 5639 5637 5635 5634 5632 5630 5628 5626 5625 5624 5621 5618 5617 5616 5615 5612 5608 5606 5604 5603 5602 5603 5602 5600 5597 5595 5594 5592 5590 5587 5585 5584 5582 5582 5582 5583 5583 5583 5584 5585 5586 5587 5588 5590 5592 5594 5595 5598 5599 5601 5602 5603 5605 5606 5607 5609 5612 5616 5620 5622 5624
5688 5688 5687 5686 5683 5679 5676 5672 5670 5667 5665 5664 5663 5661 5659 5657 5655 5654 5652 5651 5650 5648 5647 5646 5645 5643 5642 5640 5638 5636 5634 5632 5631 5629 5628 5627 5624 5622 5621 5620 5617 5614 5611 5609 5608 5607 5607 5607 5605 5603 5601 5600 5598 5596 5593 5591 5590 5588 5587 5586 5585 5585 5585 5586 5586 5587 5589 5590 5591 5592 5594 5595 5597 5599 5600 5602 5603 5604 5605 5605 5606 5608 5611 5613 5615 5617 5619
5690 5689 5687 5685 5682 5679 5675 5673 5671 5670 5668 5666 5664 5662 5661 5659 5658 5656 5654 5652 5650 5649 5648 5647 5646 5645 5644 5642 5640 5638 5636 5635 5633 5632 5630 5629 5627 5626 5624 5622 5618 5615 5613 5612 5612 5612 5611 5610 5607 5605 5604 5602 5601 5599 5597 5595 5593 5592 5591 5591 5590 5589 5589 5589 5589 5589 5591 5592 5593 5594 5594 5595 5596 5598 5599 5600 5601 5603 5603 5604 5605 5606 5608 5609 5611 5613 5615
5689 5688 5686 5684 5681 5678 5676 5674 5673 5671 5669 5667 5665 5664 5663 5661 5660 5658 5656 5654 5652 5651 5649 5647 5646 5645 5644 5643 5642 5640 5638 5637 5635 5634 5632 5631 5629 5627 5626 5623 5621 5618 5616 5615 5615 5615 5614 5612 5609 5608 5606 5605 5604 5603 5601 5599 5597 5596 5595 5594 5594 5593 5593 5594 5593 5593 5593 5593 5594 5595 5595 5596 5597 5597 5597 5598 5599 5601 5602 5603 5604 5604 5606 5607 5609 5611 5613
5689 5688 5686 5683 5681 5679 5677 5675 5674 5672 5670 5668 5667 5666 5664 5663 5661 5659 5658 5656 5654 5653 5651 5649 5647 5646 5644 5643 5642 5641 5640 5638 5636 5635 5633 5632 5630 5628 5626 5625 5623 5621 5619 5618 5617 5617 5616 5614 5612 5610 5609 5608 5607 5606 5605 5603 5601 5599 5598 5597 5597 5596 5597 5597 5597 5597 5596 5596 5596 5596 5597 5597 5598 5598 5598 5599 5600 5601 5602 5603 5604 5604 5605 5606 5608 5609 5611
5691 5689 5686 5684 5682 5680 5678 5677 5675 5673 5671 5670 5668 5666 5664 5663 5661 5660 5658 5656 5655 5653 5652 5650 5649 5647 5645 5643 5643 5642 5640 5638 5636 5635 5633 5632 5630 5628 5627 5625 5623 5622 5620 5619 5618 5617 5616 5616 5615 5614 5612 5610 5609 5608 5608 5607 5605 5603 5601 5600 5599 5599 5599 5599 5599 5598 5598 5598 5598 5598 5599 5600 5600 5600 5600 5600 5601 5601 5603 5603 5604 5605 5605 5606 5607 5609 5610
5691 5689 5686 5684 5682 5681 5679 5677 5675 5673 5672 5670 5668 5666 5665 5663 5661 5659 5657 5656 5655 5654 5652 5651 5649 5647 5646 5645 5643 5642 5639 5637 5636 5634 5633 5632 5630 5629 5627 5625 5623 5622 5621 5619 5618 5617 5616 5616 5615 5615 5614 5612 5610 5609 5608 5608 5607 5606 5605 5604 5603 5602 5601 5600 5600 5600 5599 5599 5599 5599 5599 5600 5601 5602 5602 5602 5602 5603 5603 5604 5604 5605 5606 5607 5607 5608 5609